Minneapolis Flying Cloud, MN

12:25 AM CDT on August 21, 2017 (GMT -0500)
Flying Cloud

Weather History for KFCM - December, 2011

Change the Weather History Date:

Wednesday, December 14, 2011

  Actual Average Record
Temperature  
Mean Temperature 37 °F -  
Max Temperature 39 °F 29 °F 55 °F (1998)
Min Temperature 35 °F 15 °F -8 °F (2010)
Degree Days  
Heating Degree Days 28    
Moisture  
Dew Point 36 °F    
Average Humidity 95    
Maximum Humidity 100    
Minimum Humidity 89    
Precipitation  
Precipitation 0.27 in - - ()
Sea Level Pressure  
Sea Level Pressure 29.81 in    
Wind  
Wind Speed 6 mph (East)    
Max Wind Speed 10 mph    
Max Gust Speed 17 mph    
Visibility 3 miles    
Events Rain    
Averages and records for this station are not official NWS values.
T = Trace of Precipitation, MM = Missing Value Source: NWS Daily Summary

Daily Weather History Graph

Daily Weather History Graph

Search for Another Location

Airport or City:

Trip Planner

Search our weather history database for the weather conditions in past years. The results will help you decide how hot, cold, wet, or windy it might be!

Date:

Astronomy

Dec. 14, 2011 Rise Set
Actual Time 7:43 AM CST 4:33 PM CST
Civil Twilight 7:10 AM CST 5:06 PM CST
Nautical Twilight 6:32 AM CST 5:43 PM CST
Astronomical Twilight 5:57 AM CST 6:19 PM CST
Moon 9:02 PM CST (12/14) 10:21 AM CST (12/14)
Length of Visible Light 9h 56m
Length of Day
8h 49m
Waning Gibbous, 83% of the Moon is Illuminated
Dec 14
Waning Gibbous
Dec 17
Last Quarter
Dec 24
New
Jan 1
First Quarter
Jan 9
Full

Hourly Weather History & Observations

Time (CST) Temp. Windchill Dew Point Humidity Pressure Visibility Wind Dir Wind Speed Gust Speed Precip Events Conditions
12:15 AM 35.6 °F 31.7 °F 33.8 °F 93% 30.07 in 4.0 mi ESE 4.6 mph - 0.00 in Rain Light Rain
12:53 AM 36.0 °F 31.1 °F 34.0 °F 93% 30.08 in 2.0 mi ESE 5.8 mph - 0.00 in   Overcast
1:10 AM 35.6 °F 31.7 °F 33.8 °F 93% 30.04 in 3.0 mi ESE 4.6 mph - 0.00 in Rain Light Rain
1:28 AM 35.6 °F 28.6 °F 33.8 °F 93% 30.01 in 3.0 mi ESE 9.2 mph - 0.00 in Rain Light Rain
1:40 AM 35.6 °F 30.7 °F 33.8 °F 93% 30.01 in 2.0 mi East 5.8 mph - 0.00 in   Overcast
1:53 AM 36.0 °F 29.0 °F 34.0 °F 93% 30.02 in 2.5 mi ESE 9.2 mph - 0.01 in Rain Light Rain
2:20 AM 35.6 °F 28.6 °F 33.8 °F 93% 30.02 in 3.0 mi ESE 9.2 mph - 0.00 in   Overcast
2:30 AM 35.6 °F 29.9 °F 33.8 °F 93% 30.01 in 2.0 mi ESE 6.9 mph - 0.00 in Rain Light Rain
2:40 AM 35.6 °F 29.2 °F 33.8 °F 93% 30.01 in 1.2 mi SE 8.1 mph - 0.00 in   Overcast
2:53 AM 36.0 °F 28.5 °F 34.0 °F 93% 30.01 in 1.2 mi ESE 10.4 mph - 0.00 in   Overcast
3:07 AM 35.6 °F 28.0 °F 33.8 °F 93% 29.98 in 1.2 mi ESE 10.4 mph - 0.00 in   Overcast
3:49 AM 35.6 °F 29.2 °F 33.8 °F 93% 29.96 in 2.0 mi ESE 8.1 mph - 0.01 in   Overcast
3:53 AM 35.1 °F 27.9 °F 34.0 °F 96% 29.97 in 2.0 mi ESE 9.2 mph - 0.01 in   Overcast
4:13 AM 35.6 °F 30.7 °F 33.8 °F 93% 29.94 in 1.8 mi ESE 5.8 mph - N/A   Overcast
4:21 AM 35.6 °F 29.2 °F 33.8 °F 93% 29.94 in 2.0 mi ESE 8.1 mph - N/A   Overcast
4:42 AM 35.6 °F 28.0 °F 33.8 °F 93% 29.95 in 1.8 mi SE 10.4 mph - N/A   Overcast
4:53 AM 36.0 °F 29.6 °F 34.0 °F 93% 29.96 in 2.0 mi SE 8.1 mph - N/A   Overcast
5:18 AM 35.6 °F 29.9 °F 33.8 °F 93% 29.92 in 1.8 mi ESE 6.9 mph - N/A   Overcast
6:07 AM 35.6 °F 30.7 °F 35.6 °F 100% 29.90 in 0.8 mi ESE 5.8 mph - N/A   Overcast
6:32 AM 35.6 °F 31.7 °F 35.6 °F 100% 29.91 in 1.0 mi ESE 4.6 mph - N/A   Overcast
6:53 AM 36.0 °F 30.3 °F 35.1 °F 97% 29.94 in 0.8 mi SE 6.9 mph - N/A   Overcast
7:30 AM 35.6 °F 30.7 °F 35.6 °F 100% 29.86 in 1.0 mi ESE 5.8 mph - N/A   Mist
7:53 AM 36.0 °F 30.3 °F 35.1 °F 97% 29.87 in 1.0 mi ESE 6.9 mph - N/A   Mist
8:53 AM 36.0 °F 31.1 °F 36.0 °F 100% 29.86 in 2.0 mi ESE 5.8 mph - N/A   Overcast
9:53 AM 37.0 °F - 35.1 °F 93% 29.86 in 2.0 mi Calm Calm - 0.00 in Rain Light Rain
10:03 AM 37.4 °F - 35.6 °F 93% 29.83 in 1.5 mi Calm Calm - 0.00 in Rain Light Rain
10:53 AM 37.9 °F 33.5 °F 36.0 °F 93% 29.83 in 1.5 mi ESE 5.8 mph - 0.01 in   Overcast
11:40 AM 37.4 °F 33.8 °F 37.4 °F 100% 29.78 in 2.0 mi ESE 4.6 mph - 0.01 in Rain Light Rain
11:53 AM 37.9 °F 34.4 °F 37.0 °F 97% 29.80 in 2.0 mi SE 4.6 mph - 0.01 in Rain Light Rain
12:53 PM 37.9 °F 35.5 °F 37.0 °F 97% 29.75 in 2.5 mi ENE 3.5 mph - 0.03 in Rain Light Rain
1:26 PM 37.4 °F - 37.4 °F 100% 29.72 in 2.0 mi Calm Calm - 0.05 in Rain Light Rain
1:49 PM 37.4 °F 32.1 °F 37.4 °F 100% 29.69 in 2.5 mi ENE 6.9 mph - 0.09 in Rain Light Rain
1:53 PM 37.9 °F 33.5 °F 37.0 °F 97% 29.72 in 2.5 mi ENE 5.8 mph - 0.09 in Rain Light Rain
2:00 PM 37.4 °F 33.8 °F 37.4 °F 100% 29.69 in 3.0 mi ENE 4.6 mph - 0.01 in Rain Light Rain
2:20 PM 37.4 °F 33.8 °F 37.4 °F 100% 29.67 in 5.0 mi East 4.6 mph - 0.02 in Rain Light Rain
2:29 PM 37.4 °F 34.9 °F 37.4 °F 100% 29.68 in 4.0 mi ENE 3.5 mph - 0.02 in Rain Light Rain
3:43 PM 39.2 °F 35.9 °F 37.4 °F 93% 29.66 in 5.0 mi ESE 4.6 mph - 0.05 in Rain Light Rain
3:53 PM 37.9 °F 34.4 °F 37.9 °F 100% 29.68 in 6.0 mi ESE 4.6 mph - 0.06 in Rain Light Rain
4:27 PM 39.2 °F - 37.4 °F 93% 29.64 in 6.0 mi Calm Calm - 0.01 in Rain Light Rain
4:35 PM 37.4 °F - 37.4 °F 100% 29.65 in 6.0 mi Calm Calm - 0.01 in Rain Light Rain
4:53 PM 39.0 °F - 36.0 °F 89% 29.67 in 5.0 mi Calm Calm - 0.02 in Rain Light Rain
4:57 PM 39.2 °F - 37.4 °F 93% 29.65 in 5.0 mi Calm Calm - 0.00 in Rain Light Rain
5:53 PM 37.9 °F 35.5 °F 37.0 °F 97% 29.66 in 3.0 mi North 3.5 mph - 0.02 in Rain Light Rain
6:02 PM 37.4 °F 34.9 °F 37.4 °F 100% 29.62 in 4.0 mi NNE 3.5 mph - 0.00 in Rain Light Rain
6:23 PM 37.4 °F - 37.4 °F 100% 29.62 in 5.0 mi Calm Calm - 0.00 in   Overcast
6:53 PM 37.9 °F - 37.0 °F 97% 29.66 in 4.0 mi Calm Calm - 0.00 in Rain Light Rain
7:53 PM 37.9 °F - 37.0 °F 97% 29.66 in 5.0 mi Calm Calm - 0.00 in   Overcast
8:53 PM 37.9 °F 33.5 °F 36.0 °F 93% 29.65 in 6.0 mi WNW 5.8 mph - 0.01 in   Overcast
9:11 PM 37.4 °F 32.8 °F 35.6 °F 93% 29.63 in 1.8 mi NW 5.8 mph - N/A   Overcast
9:26 PM 37.4 °F 32.1 °F 35.6 °F 93% 29.63 in 0.8 mi NW 6.9 mph - N/A   Mist
9:37 PM 37.4 °F 32.8 °F 35.6 °F 93% 29.63 in 1.2 mi NW 5.8 mph - N/A   Overcast
9:51 PM 37.4 °F 31.4 °F 35.6 °F 93% 29.63 in 2.5 mi NW 8.1 mph - N/A   Overcast
9:53 PM 37.0 °F 31.0 °F 36.0 °F 96% 29.65 in 3.0 mi NW 8.1 mph - N/A   Overcast
10:53 PM 37.0 °F 33.3 °F 36.0 °F 96% 29.65 in 10.0 mi WNW 4.6 mph - N/A   Overcast
11:53 PM 37.0 °F 29.8 °F 35.1 °F 93% 29.67 in 10.0 mi WNW 10.4 mph 17.3 mph 0.00 in Rain Light Rain